Regional Weather Roundup
Issued by NWS

Home | Current Version | Previous Version | Text Only | Print | Product List | Glossary Off
Versions: 1 2 3 4 5 6 7 8 9 10 11 12 13 14 15 16 17 18 19 20 21 22 23 24 25 26 27 28 29 30 31 32 33 34 35 36 37 38 39 40 41 42 43 44 45 46 47 48 49 50

385
ASUS43 KOAX 150810
RWRNE

WEATHER ROUNDUP FOR NEBRASKA
NATIONAL WEATHER SERVICE OMAHA NE
200 AM CST FRI DEC 15 2017

NOTES: SATELLITE DATA IS BEING USED TO AUGMENT CLOUD COVER ABOVE
       12000 FEET.
       "FAIR" INDICATES FEW OR NO CLOUDS BELOW 12,000 FEET WITH NO
       SIGNIFICANT WEATHER AND/OR OBSTRUCTIONS TO VISIBILITY.


NEZ001>004-019>022-054>056-150900-
NEBRASKA PANHANDLE

CITY           SKY/WX    TMP DP  RH WIND       PRES   REMARKS
SCOTTSBLUFF    CLOUDY    10   7  87 N7        30.11F WCI  -1
ALLIANCE       CLOUDY     9   7  92 W8        30.08F WCI  -3
CHADRON        CLOUDY    15  12  88 SW5       30.09S WCI   8
GORDON         FAIR      22  17  80 W10       30.06F WCI  11
KIMBALL        CLOUDY    19  11  72 W8        30.10F WCI   9
SIDNEY         CLOUDY    12   8  84 W9        30.11F WCI   0
$$

NEZ057>060-069>072-079>082-150900-
SOUTHWEST NEBRASKA

CITY           SKY/WX    TMP DP  RH WIND       PRES   REMARKS
NORTH PLATTE   CLOUDY    17  15  92 NW5       30.14F WCI  10
IMPERIAL       CLOUDY    19  14  81 W6        30.16F WCI  11
LEXINGTON      CLEAR     22  18  86 W6        30.15F WCI  14
MCCOOK         CLEAR     22  18  85 W9        30.19F WCI  12
OGALLALA       CLOUDY    16  13  86 W7        30.14F WCI   6
$$

NEZ005>010-023>029-035>040-094-150900-
NORTH CENTRAL NEBRASKA

CITY           SKY/WX    TMP DP  RH WIND       PRES   REMARKS
VALENTINE      PTCLDY    24  20  84 W9        30.07F WCI  14
AINSWORTH      CLEAR     25  23  91 W12       30.08S WCI  15
BROKEN BOW     CLEAR     25  20  81 W8        30.11F WCI  16
O`NEILL        CLOUDY    31  29  90 SW8       30.07F WCI  24
ORD            PTCLDY    28  24  85 W10       30.10F WCI  19
THEDFORD       CLEAR     23  20  88 W3        30.10F
$$

NEZ041-046>049-061>064-073>077-083>087-150900-
SOUTH CENTRAL NEBRASKA

CITY           SKY/WX    TMP DP  RH WIND       PRES   REMARKS
GRAND ISLAND   CLOUDY    27  23  85 W9        30.16F WCI  18
AURORA         CLOUDY    29  26  88 W10       30.15S WCI  20
HASTINGS       PTCLDY    22  18  85 W6        30.16F WCI  14
HEBRON         CLOUDY    32  28  86 NW6       30.17S WCI  27
HOLDREGE       CLEAR     24  24  96 W5        30.16F WCI  19
KEARNEY        MOCLDY    30  24  78 SW6       30.16F WCI  24
YORK           CLOUDY    30  30 100 CALM      30.14F
$$

NEZ011>018-030>034-042>045-150900-
NORTHEAST NEBRASKA

CITY           SKY/WX    TMP DP  RH WIND       PRES   REMARKS
NORFOLK        CLOUDY    31  26  82 W10       30.08F WCI  22
ALBION         CLOUDY    32  27  81 CALM      30.11F
BLAIR          CLOUDY    32  27  81 NW5       30.10S WCI  27
COLUMBUS       CLOUDY    31  26  82 W7        30.13F WCI  24
FREMONT        CLOUDY    32  27  83 W6        30.12F WCI  26
TEKAMAH        CLOUDY    32  24  72 NW6       30.11F WCI  26
WAYNE          CLOUDY    32  27  82 W7        30.08F WCI  26
$$

NEZ050>053-065>068-078-088>093-150900-
SOUTHEAST NEBRASKA

CITY           SKY/WX    TMP DP  RH WIND       PRES   REMARKS
LINCOLN        CLOUDY    34  28  79 W3        30.15F
OMAHA EPPLEY   CLOUDY    32  23  69 CALM      30.13S
BEATRICE       CLOUDY    32  31  94 NW8       30.15S WCI  25
FALLS CITY     CLOUDY    37  29  72 NW10      30.12F WCI  30
NEBRASKA CITY  CLOUDY    35  29  80 N12       30.13R WCI  27
PLATTSMOUTH    CLOUDY    33  26  77 NW9       30.13R WCI  25
$$

NEZ044-045-051>053-067-150900-
OMAHA AREA

CITY           SKY/WX    TMP DP  RH WIND       PRES   REMARKS
OMAHA EPPLEY   CLOUDY    32  23  69 CALM      30.13S
BLAIR          CLOUDY    32  27  81 NW5       30.10S WCI  27
FREMONT        CLOUDY    32  27  83 W6        30.12F WCI  26
MILLARD        CLOUDY    34  27  74 NW3       30.13S
OFFUTT AFB     MOCLDY    32  24  73 NW6       30.12S WCI  26
PLATTSMOUTH    CLOUDY    33  26  77 NW9       30.13R WCI  25
WAHOO          CLOUDY    33  28  80 W3        30.12F
$$




USA.gov is the U.S. government's official web portal to all federal, state and local government web resources and services.